Showing default

HAWK-6B, 55324

Orbit data source: Space-Track

HAWK-6B, 55324 is a payload satellite owned by HawkEye 360 (US) in LEO that was launched on Tue, 24 Jan 2023 UTC via an ELECTRON launch vehicle from the Wallops Island (WLPIS). Payload-class satellites include a variety of spacecraft equipped with specific instruments for various scientific and technological missions. These include communications satellites like Starlink; space stations such as the ISS; scientific satellites like the Hubble; Earth observation satellites from companies like Planet Labs, Umbra, and HawkEye 360; GPS; miniature CubeSats for education and research; and military/defense satellites.

Loading next visibility...
Identifier
55324, 2023-011A
Orbit
LEO
Country
Flag of USUS
Related business
Manufacturer
UTIAS-SFL
Mission
Operational Commercial Sigint
Bus & Motor
HAWK2G, Unknown motor
Mass
31 kg wet, 30 kg dry
Launch date (UTC)
2023-01-24 (3 years ago)
Launch vehicle
ELECTRON
Launch site
Wallops Island (WLPIS)
Object type
Payload
Rocket body
Debris
Shape & HBR
Box + 2 Pan, 1.0 m
Radar Cross Section
0.240 m², Medium (>0.1 m² and < 1m²)

Expand to show TLE details & history
Last TLE update: 8 hours ago

TLE from 8 hours ago
0 HAWK-6B
1 55324U 23011A   26095.18075952  .00008021  00000-0  34919-3 0  9995
2 55324  40.4995  57.6768 0004644 249.2628 110.7684 15.22271244176711
Epoch: 2026-04-05T04:20Z
TLE epoch observation values (Epoch: 2026-04-05T04:20:17.622Z)
Latitude
0.00001°
Longitude
159.11351°
Altitude
499.624 km
Speed
7.616 km/s
True Right ascension
03h 50m 42s
True Declination
0° 00' 00"
Sunlit
Object was in daylight at epoch
Visualization orbit readout
Latitude
Unknown
Longitude
Unknown
Altitude
Unknown
Speed
Unknown
Apparent Right ascension
Unknown
Apparent Declination
Unknown
Sunlit
N/A
Visualization observer readout
Local Sidereal Time
17:58:07
Azimuth
Unknown
Elevation
Unknown
Doppler factor
Unknown
Orbital elements
Apogee altitude
504.544 km
Perigee altitude
498.154 km
Semi-major axis
6,879.486 km
Eccentricity
0.00046
Inclination
40.4995°
RAAN
57.6768°
Arg. of periapsis
249.2628°
True anomaly
110.81815°
Mean anomaly
110.7684°
Eccentric anomaly
110.79328°
Mean motion
3.80373 °/min
Orbital period
94.64 mins
BSTAR
0.00034919
Loading maneuver chart data...
Computing Atmospheric mass density...
Loading historical data...
Loading historical data...
Loading historical data...
Loading historical data...
Loading historical data...
Loading historical data...
Loading historical data...

Documentation

Showing up to 5 results
|